Regional Weather Roundup
Issued by NWS Midland/Odessa, TX

Skip options and go directly to product.
Home | Oldest Version | Previous Version | Current Version | All | Text Only | Save Text | Print | Product List | Glossary On

Skip product version selection by date and time.   
724
ASUS44 KMAF 211810
RWRMAF
MIDLAND AREA WEATHER ROUNDUP
NATIONAL WEATHER SERVICE MIDLAND TX
1200 PM CST SUN DEC 21 2014

...IN SOUTHWEST TEXAS AND SOUTHEAST NEW MEXICO...

CITY           SKY/WX    TMP DP  RH WIND       PRES   REMARKS
ALPINE         SUNNY     60  23  24 W18G25    30.07F
ANDREWS        FAIR      58  31  35 W12G17    29.90F
ARTESIA        MOSUNNY   63  27  25 W13       29.92F
BIG SPRING     SUNNY     59  40  49 S16       29.92F
CARLSBAD       SUNNY     63  26  24 SE9       29.90F
DRYDEN           N/A     58  45  62 S10       29.99F
FORT STOCKTON  SUNNY     65  20  17 W7        29.96F
GUAD PASS      NOT AVBL
HOBBS          SUNNY     59  27  29 SW17      29.92F
MARFA          SUNNY     57  25  28 W16G23    30.07F
MIDLAND AIRPK  SUNNY     58  35  42 SW10      29.92F
MIDLAND INTL   SUNNY     57  33  40 SW16      29.92F
ODESSA         SUNNY     56  31  38 W16       29.93F
PECOS          SUNNY     64  29  27 W17       29.95F
PRESIDIO       FAIR      57  32  38 SE5       30.05F
SEMINOLE       SUNNY     60  31  33 W15G21    29.91F
SNYDER         MOSUNNY   55  41  60 S16       29.88F
WINK           SUNNY     56  31  38 SW13      29.92F
$$
...OTHER STATIONS IN TEXAS...

CITY           SKY/WX    TMP DP  RH WIND       PRES   REMARKS
ABILENE        MOSUNNY   54  43  66 S23       29.92F
AMARILLO       SUNNY     50  26  39 W7        29.78F
AUSTIN         CLOUDY    53  46  77 S10       30.06F
BROWNSVILLE    LGT RAIN  62  60  93 NW8       30.04F FOG
CORPUS CHRISTI CLOUDY    58  53  84 NE10      30.06F
DALLAS FTW     CLOUDY    50  44  80 S16       30.01F
DEL RIO        CLOUDY    52  48  86 SE9       30.04F
EL PASO        MOSUNNY   54  29  38 SW14      30.04F
HOUSTON INT    PTSUNNY   57  47  69 NE5       30.08F
LUBBOCK        MOSUNNY   60  26  27 W26G35    29.83F
SAN ANGELO     PTSUNNY   54  43  66 S13       29.97F
SAN ANTONIO    CLOUDY    55  50  83 SW6       30.07F
WACO           CLOUDY    52  45  77 S12       30.05F
WICHITA FALLS  NOT AVBL
$$
...OTHER LOCATIONS IN NEW MEXICO...

CITY           SKY/WX    TMP DP  RH WIND       PRES   REMARKS
ALAMAGORDO     MOSUNNY   48  30  49 S5        30.06F
ALBUQUERQUE    PTSUNNY   42  28  57 CALM      30.02F
CANNON AFB     PTSUNNY   52  25  35 W18G26    29.84F
CLOVIS         PTSUNNY   54  27  35 W20       29.82F
HOLLOMAN AFB   MOSUNNY   47  32  56 S5        30.04S
ROSWELL        PTSUNNY   57  28  33 E8        29.91F
RUIDOSO        MOSUNNY   46  25  42 NW22G36   29.99S WCI  38
SANTA FE       PTSUNNY   41  25  53 N12       29.96F WCI  34
TRUTH OR CONSE PTSUNNY   47  26  44 MISG      30.04S
TUCUMCARI      MOSUNNY   56  24  29 W12       29.78F
$$

USA.gov is the U.S. government's official web portal to all federal, state and local government web resources and services.